Location: Les Martinières
(47.2667°N, 1.4410°E)
Time: 03:37:31
(UTC+00:00)

Helios 1A Rocket - Pass Details

Date: 15 May 2026
Orbit: 400 x 409 km, 98.3° (Epoch: 8 June)

Event Time Altitude Azimuth Distance (km) Brightness Sun altitude
Rises 20:07:40 0° 14° (NNE) 2,339 6.4 -7.0°
Reaches altitude 10° 20:09:40 10° 16° (NNE) 1,470 5.3 -7.3°
Maximum altitude 20:12:48 81° 103° (ESE) 413 2.1 -7.7°
Drops below altitude 10° 20:15:53 10° 192° (SSW) 1,450 4.7 -8.1°
Sets 20:17:51 0° 193° (SSW) 2,302 5.7 -8.3°
